Location: Lawrence
(38.9720°N, 95.2350°W)
Time: 21:12:26
(UTC-05:00)

Amateur Radio Satellites - All Passes

Search period start: 20 October 2014 20:42
Search period end: 21 October 2014 20:42
Location: Lawrence, 38.9720°N, 95.2350°W

Satellite Date Start Highest point End Downlink Frequencies (MHz)
Time Altitude Azimuth
UKube-1 20 Oct 21:05:50 21:08:30 16° 65° (ENE) 21:11:09 145.840 MHz, 145.915 MHz
FUNcube-1 20 Oct 21:38:00 21:40:18 14° 64° (ENE) 21:42:35 145.950 - 145.970 MHz USB
Oscar 11 20 Oct 21:49:55 21:53:58 40° 72° (ENE) 21:58:02 145.825 FM, Beacon 2401.500 USB
ISS 20 Oct 21:53:40 21:57:00 70° 221° (SW) 22:00:18 145.800 FM
STRAND 1 20 Oct 21:54:13 21:56:33 13° 299° (WNW) 21:58:54 ?
HO-68 20 Oct 22:09:43 22:16:34 49° 260° (W) 22:23:30 435.675 MHz FM
KITSAT 1 20 Oct 22:18:08 22:25:59 51° 54° (NE) 22:33:46 435.175 FM
ZACube-1 20 Oct 22:25:56 22:30:19 44° 73° (ENE) 22:34:39 437.345 MHz
UKube-1 20 Oct 22:40:09 22:44:18 44° 260° (W) 22:48:29 145.840 MHz, 145.915 MHz
RS-15 20 Oct 22:58:59 23:09:32 54° 111° (ESE) 23:19:56 29.354 - 29.394 USB, Beacon 29.352 USB
FUNcube-1 20 Oct 23:11:37 23:16:10 59° 260° (W) 23:20:41 145.950 - 145.970 MHz USB
SO-50 20 Oct 23:12:45 23:17:28 51° 55° (NE) 23:22:13 436.795 FM
Oscar 11 20 Oct 23:27:34 23:30:18 16° 267° (W) 23:33:03 145.825 FM, Beacon 2401.500 USB
ZACube-1 21 Oct 00:03:51 00:06:52 17° 267° (W) 00:09:53 437.345 MHz
KITSAT 1 21 Oct 00:13:58 00:21:04 36° 252° (WSW) 00:28:10 435.175 FM
MaSat-1 21 Oct 00:42:33 00:46:25 32° 109° (ESE) 00:50:01 437.345 MHz
SO-50 21 Oct 00:54:18 00:57:40 19° 250° (WSW) 01:01:01 436.795 FM
UOSAT-12 21 Oct 01:00:43 01:05:22 54° 55° (NE) 01:09:54 437.025 FM, 437.400 FM
RS-15 21 Oct 01:11:40 01:22:02 45° 314° (NW) 01:32:26 29.354 - 29.394 USB, Beacon 29.352 USB
JAS-1B 21 Oct 01:31:36 01:34:39 13° 92° (E) 01:37:53 435.800 - 435.900 CW/SSB
Oscar 16 21 Oct 01:32:21 01:33:32 11° 89° (E) 01:34:42 437.025 USB, Beacon 2401.1428
AO-Echo 21 Oct 02:01:58 02:03:45 12° 89° (E) 02:05:32 ?
MaSat-1 21 Oct 02:18:56 02:22:12 21° 302° (WNW) 02:25:16 437.345 MHz
Oscar 19 21 Oct 02:23:34 02:28:17 37° 98° (E) 02:32:59 437.125 CW, 437.150 USB
AO-27 21 Oct 02:31:22 02:34:50 18° 93° (E) 02:38:16 436.795 MHz FM
UOSAT-12 21 Oct 02:42:11 02:45:02 16° 251° (WSW) 02:47:50 437.025 FM, 437.400 FM
Oscar 16 21 Oct 03:08:18 03:13:26 79° 285° (WNW) 03:18:33 437.025 USB, Beacon 2401.1428
JAS-1B 21 Oct 03:19:11 03:25:41 88° 105° (ESE) 03:33:29 435.800 - 435.900 CW/SSB
Gurwin Techsat 1B 21 Oct 03:20:01 03:24:30 27° 95° (E) 03:28:56 435.225 FM
Uribyol 2 21 Oct 03:20:05 03:25:13 55° 101° (E) 03:30:18 436.500 FM
ITAMSAT 1 21 Oct 03:24:58 03:30:08 58° 101° (E) 03:35:15 435.822 SSB
RS-15 21 Oct 03:31:16 03:38:18 18° 346° (NNW) 03:45:25 29.354 - 29.394 USB, Beacon 29.352 USB
TMSAT-1 21 Oct 03:34:06 03:38:33 27° 95° (E) 03:42:59 436.925 FM
AO-Echo 21 Oct 03:37:44 03:43:03 80° 285° (WNW) 03:48:21 ?
Oscar 19 21 Oct 04:03:18 04:07:25 25° 294° (WNW) 04:11:32 437.125 CW, 437.150 USB
AO-27 21 Oct 04:09:32 04:14:38 53° 288° (WNW) 04:19:41 436.795 MHz FM
OPAL 21 Oct 04:13:53 04:16:39 15° 60° (ENE) 04:19:24 ?
AO-7 21 Oct 04:35:11 04:41:56 27° 95° (E) 04:48:38 29.400 - 29.500 MHz
Sapphire 21 Oct 04:42:30 04:47:16 33° 109° (ESE) 04:52:04 437.095 MHz 1200 baud AX-25 AFSK
Gurwin Techsat 1B 21 Oct 04:59:40 05:04:29 36° 291° (WNW) 05:09:16 435.225 FM
Uribyol 2 21 Oct 05:00:47 05:04:13 18° 297° (WNW) 05:07:39 436.500 FM
PCSat 21 Oct 05:04:54 05:10:11 58° 114° (ESE) 05:15:30 145.825 MHz
ITAMSAT 1 21 Oct 05:05:46 05:09:08 18° 297° (WNW) 05:12:28 435.822 SSB
JAS-1B 21 Oct 05:12:12 05:15:45 15° 299° (WNW) 05:19:34 435.800 - 435.900 CW/SSB
TMSAT-1 21 Oct 05:13:42 05:18:30 36° 291° (WNW) 05:23:16 436.925 FM
Uosat F 21 Oct 05:19:11 05:23:54 38° 98° (E) 05:28:34 435.120 FM
AO-Echo 21 Oct 05:20:19 05:20:55 10° 301° (WNW) 05:21:32 ?
RS-15 21 Oct 05:48:38 05:56:37 22° 23° (NNE) 06:04:45 29.354 - 29.394 USB, Beacon 29.352 USB
OPAL 21 Oct 05:49:46 05:54:56 71° 256° (WSW) 06:00:04 ?
STRAND 1 21 Oct 05:52:28 05:54:16 12° 60° (ENE) 05:56:04 ?
Hamsat 21 Oct 06:03:56 06:05:51 13° 91° (E) 06:07:45 145.90 MHz
JAS-2 21 Oct 06:06:40 06:13:44 37° 96° (E) 06:20:50 435.800 - 435.900 CW/SSB, 435.910 FM
Sapphire 21 Oct 06:25:45 06:30:38 34° 307° (NW) 06:35:32 437.095 MHz 1200 baud AX-25 AFSK
AO-7 21 Oct 06:26:59 06:35:10 64° 292° (WNW) 06:43:21 29.400 - 29.500 MHz
PCSat 21 Oct 06:49:52 06:53:58 22° 312° (NW) 06:58:06 145.825 MHz
Uosat F 21 Oct 06:58:27 07:02:26 24° 294° (WNW) 07:06:24 435.120 FM
STRAND 1 21 Oct 07:27:34 07:32:41 85° 256° (WSW) 07:37:52 ?
Hamsat 21 Oct 07:38:01 07:42:02 47° 286° (WNW) 07:46:04 145.90 MHz
JAS-2 21 Oct 07:51:29 07:58:43 47° 291° (WNW) 08:06:06 435.800 - 435.900 CW/SSB, 435.910 FM
RS-15 21 Oct 08:01:01 08:12:01 60° 52° (NE) 08:23:28 29.354 - 29.394 USB, Beacon 29.352 USB
AO-7 21 Oct 08:22:38 08:26:21 14° 312° (NW) 08:30:04 29.400 - 29.500 MHz
SO-67 21 Oct 08:32:48 08:36:16 79° 283° (WNW) 08:39:42 435.3500 MHz FM
Saudisat 1A 21 Oct 08:40:42 08:44:46 39° 115° (ESE) 08:48:52 436.775 MHz
HO-68 21 Oct 09:38:42 09:45:11 35° 97° (E) 09:51:36 435.675 MHz FM
PANSAT 21 Oct 10:04:48 10:06:40 13° 168° (SSE) 10:08:32 not established
RS-15 21 Oct 10:13:54 10:23:57 40° 252° (WSW) 10:34:25 29.354 - 29.394 USB, Beacon 29.352 USB
Saudisat 1A 21 Oct 10:20:59 10:24:27 23° 313° (NW) 10:27:57 436.775 MHz
UKube-1 21 Oct 10:29:33 10:33:29 32° 98° (E) 10:37:23 145.840 MHz, 145.915 MHz
MaSat-1 21 Oct 10:30:39 10:33:05 30° 60° (ENE) 10:35:19 437.345 MHz
FUNcube-1 21 Oct 11:02:34 11:06:15 28° 96° (E) 11:09:50 145.950 - 145.970 MHz USB
Oscar 11 21 Oct 11:14:25 11:18:44 82° 284° (WNW) 11:23:02 145.825 FM, Beacon 2401.500 USB
HO-68 21 Oct 11:26:13 11:32:54 43° 294° (WNW) 11:39:34 435.675 MHz FM
PANSAT 21 Oct 11:43:38 11:46:09 17° 181° (S) 11:48:41 not established
ZACube-1 21 Oct 11:52:39 11:56:57 74° 284° (WNW) 12:01:08 437.345 MHz
UKube-1 21 Oct 12:06:08 12:09:28 22° 293° (WNW) 12:12:47 145.840 MHz, 145.915 MHz
FUNcube-1 21 Oct 12:39:07 12:42:29 23° 292° (WNW) 12:45:48 145.950 - 145.970 MHz USB
KITSAT 1 21 Oct 12:45:15 12:52:36 40° 109° (ESE) 12:59:57 435.175 FM
Oscar 16 21 Oct 12:47:18 12:50:23 16° 63° (ENE) 12:53:28 437.025 USB, Beacon 2401.1428
AO-Echo 21 Oct 13:14:04 13:16:18 13° 61° (ENE) 13:18:33 ?
PANSAT 21 Oct 13:24:14 13:25:37 12° 194° (SSW) 13:27:01 not established
SO-50 21 Oct 13:27:47 13:31:03 20° 110° (ESE) 13:34:23 436.795 FM
Sapphire 21 Oct 13:31:35 13:35:53 23° 49° (NE) 13:40:09 437.095 MHz 1200 baud AX-25 AFSK
Oscar 19 21 Oct 13:39:11 13:44:07 48° 71° (ENE) 13:49:03 437.125 CW, 437.150 USB
AO-27 21 Oct 13:48:14 13:52:24 25° 66° (ENE) 13:56:35 436.795 MHz FM
PCSat 21 Oct 13:54:10 13:59:10 36° 54° (NE) 14:04:08 145.825 MHz
JAS-1B 21 Oct 14:04:30 14:10:38 66° 73° (ENE) 14:16:17 435.800 - 435.900 CW/SSB
Oscar 16 21 Oct 14:24:05 14:29:12 62° 259° (WSW) 14:34:19 437.025 USB, Beacon 2401.1428
Oscar 10/S400 21 Oct 14:34:19 14:52:33 43° 154° (SSE) 15:16:23 145.825 - 145.975 CW/USB, Beacon 145.810 USB
ISS 21 Oct 14:34:44 14:38:03 75° 140° (SE) 14:41:24 145.800 FM
Uribyol 2 21 Oct 14:36:40 14:41:52 75° 74° (ENE) 14:47:06 436.500 FM
Gurwin Techsat 1B 21 Oct 14:39:52 14:44:43 38° 69° (ENE) 14:49:36 435.225 FM
KITSAT 1 21 Oct 14:40:10 14:47:51 46° 308° (NW) 14:55:35 435.175 FM
ITAMSAT 1 21 Oct 14:41:43 14:46:55 78° 75° (ENE) 14:52:09 435.822 SSB
AO-Echo 21 Oct 14:49:36 14:54:23 70° 258° (WSW) 14:59:22 ?
TMSAT-1 21 Oct 14:53:36 14:58:26 38° 69° (ENE) 15:03:18 436.925 FM
SO-50 21 Oct 15:07:02 15:11:17 41° 307° (NW) 15:15:40 436.795 FM
UOSAT-12 21 Oct 15:11:42 15:15:11 21° 110° (ESE) 15:18:42 437.025 FM, 437.400 FM
Sapphire 21 Oct 15:14:20 15:19:36 53° 247° (WSW) 15:24:51 437.095 MHz 1200 baud AX-25 AFSK
Oscar 19 21 Oct 15:20:04 15:23:41 19° 267° (W) 15:27:18 437.125 CW, 437.150 USB
AO-27 21 Oct 15:26:50 15:31:40 39° 262° (W) 15:36:33 436.795 MHz FM
AO-7 21 Oct 15:33:02 15:40:13 35° 60° (ENE) 15:47:25 29.400 - 29.500 MHz
PCSat 21 Oct 15:37:46 15:42:27 30° 251° (WSW) 15:47:06 145.825 MHz
JAS-1B 21 Oct 15:58:33 16:01:45 15° 267° (W) 16:04:50 435.800 - 435.900 CW/SSB
ISS 21 Oct 16:12:39 16:15:05 18° 337° (NNW) 16:17:31 145.800 FM
Uribyol 2 21 Oct 16:19:52 16:21:51 12° 270° (W) 16:23:51 436.500 FM
Gurwin Techsat 1B 21 Oct 16:20:26 16:24:45 25° 265° (W) 16:29:06 435.225 FM
JAS-2 21 Oct 16:22:06 16:24:05 12° 53° (NE) 16:26:07 435.800 - 435.900 CW/SSB, 435.910 FM
ITAMSAT 1 21 Oct 16:25:19 16:26:57 11° 270° (W) 16:28:36 435.822 SSB
Uosat F 21 Oct 16:31:13 16:36:00 47° 71° (ENE) 16:40:49 435.120 FM
TMSAT-1 21 Oct 16:34:05 16:38:24 25° 265° (W) 16:42:46 436.925 FM
KITSAT 1 21 Oct 16:41:56 16:45:38 14° 333° (NNW) 16:49:20 435.175 FM
UOSAT-12 21 Oct 16:50:38 16:55:02 42° 307° (NW) 16:59:31 437.025 FM, 437.400 FM
Saudisat 1A 21 Oct 17:08:34 17:12:13 25° 48° (NE) 17:15:52 436.775 MHz
AO-7 21 Oct 17:24:38 17:32:39 53° 258° (WSW) 17:40:43 29.400 - 29.500 MHz
OPAL 21 Oct 18:01:19 18:05:45 32° 99° (E) 18:10:08 ?
JAS-2 21 Oct 18:02:07 18:07:47 76° 74° (ENE) 18:14:16 435.800 - 435.900 CW/SSB, 435.910 FM
Uosat F 21 Oct 18:11:34 18:15:00 19° 267° (W) 18:18:28 435.120 FM
Hamsat 21 Oct 18:29:38 18:33:52 81° 258° (WSW) 18:38:06 145.90 MHz
Saudisat 1A 21 Oct 18:47:49 18:51:51 35° 245° (WSW) 18:55:51 436.775 MHz
SO-67 21 Oct 19:04:33 19:07:25 25° 72° (ENE) 19:10:18 435.3500 MHz FM
ISS 21 Oct 19:28:47 19:30:45 15° 18° (NNE) 19:32:42 145.800 FM
STRAND 1 21 Oct 19:39:42 19:44:26 36° 98° (E) 19:49:08 ?
OPAL 21 Oct 19:40:20 19:44:31 28° 295° (WNW) 19:48:39 ?
JAS-2 21 Oct 19:50:55 19:53:48 14° 274° (W) 19:56:50 435.800 - 435.900 CW/SSB, 435.910 FM
HO-68 21 Oct 20:07:02 20:12:31 25° 59° (ENE) 20:18:00 435.675 MHz FM
